[[{"header":{"parameterUnit":"m.s-1","parameterCategory":1,"la1":30.2991,"la2":30.254,"lo1":-89.0895,"lo2":-89.0444,"dy":0.0017,"dx":0.0017,"nx":28,"ny":28,"refTime":"2024-08-22T09:00:00:Z","depth":0,"parameterNumber":2,"parameterNumberName":"U-component_of_WINDS"},"data":[0,0,0,0,0,0,0,0,0,0,0,0,0,0,0,0,0,0,0,0,0,0,0,0,0,0,0,0,0,0,0,0,0,0,0,0,0,0,0,0,0,0,0,0,0,0,0,0,0,0,0,0,0,0,0,0,0,0,-0.2203,-0.2203,0,-0.2183,-0.2182,-0.2182,-0.2178,-0.2178,-0.2178,-0.2178,-0.2157,-0.2156,-0.2156,0,0,0,0,0,0,0,0,0,0,0,0,0,-0.2236,-0.2236,-0.2203,-0.2203,-0.2202,-0.2183,-0.2182,-0.2182,-0.2178,-0.2178,-0.2178,-0.2178,-0.2157,-0.2156,-0.2155,0,0,0,0,0,0,0,0,0,0,0,0,0,-0.2219,-0.2235,-0.2203,-0.2198,-0.2197,-0.2183,-0.2182,-0.2182,-0.2178,-0.2178,-0.2178,-0.2178,-0.2157,-0.2156,-0.2155,-0.2144,0,0,-0.2152,-0.2152,0,0,0,0,0,0,0,0,-0.222,-0.2218,-0.2199,-0.2198,-0.2197,-0.2183,-0.2186,-0.2169,-0.2178,-0.2185,-0.2178,-0.2178,-0.2165,-0.2164,-0.2159,-0.2143,-0.2142,-0.2152,-0.2151,-0.2151,-0.2151,0,0,0,0,0,0,0,-0.2222,-0.2219,-0.2195,-0.2199,-0.2198,-0.2196,-0.2194,-0.2183,-0.2174,-0.2184,-0.2184,-0.2182,-0.2165,-0.216,-0.2159,-0.2142,-0.2152,-0.2151,-0.215,-0.215,-0.2114,-0.2114,0,0,0,0,0,0,-0.2224,-0.222,-0.2196,-0.2194,-0.221,-0.2195,-0.2193,-0.2187,-0.2174,-0.2173,-0.2182,-0.2182,-0.2162,-0.216,-0.2158,-0.2143,-0.2151,-0.215,-0.2149,-0.2114,-0.2114,-0.2114,0,0,0,0,0,0,-0.2225,-0.2222,-0.2196,-0.2207,-0.2204,-0.2194,-0.2188,-0.2187,-0.2182,-0.2172,-0.217,-0.2179,-0.2162,-0.216,-0.2147,-0.2142,-0.2149,-0.2148,-0.2115,-0.2114,-0.2114,-0.2114,0,0,0,0,0,0,-0.2226,-0.2222,-0.2218,-0.2207,-0.2203,-0.2187,-0.2188,-0.2186,-0.2181,-0.218,-0.2169,-0.2167,-0.2162,-0.2149,-0.2146,-0.2141,-0.2148,-0.2115,-0.2115,-0.2114,-0.2115,-0.2114,-0.2113,0,0,0,0,0,-0.2227,-0.2219,-0.2218,-0.2215,-0.2198,-0.2186,-0.2184,-0.2179,-0.218,-0.2176,-0.2169,-0.2168,-0.2143,-0.2148,-0.2145,-0.2139,-0.2115,-0.2115,-0.2114,-0.2115,-0.2114,-0.2113,0,0,0,0,0,0,-0.2231,-0.2218,-0.2216,-0.2205,-0.2197,-0.2186,-0.218,-0.2178,-0.2169,-0.2169,-0.2162,-0.216,-0.2148,-0.2142,-0.2147,-0.2127,-0.2129,-0.2128,-0.2131,-0.213,-0.2129,-0.2131,-0.2147,0,0,0,0,0,-0.223,-0.2222,-0.2211,-0.2202,-0.2198,-0.219,-0.2185,-0.2181,-0.2172,-0.2168,-0.2161,-0.2152,-0.2142,-0.2136,-0.2126,-0.2114,-0.211,-0.2108,-0.2107,-0.2107,-0.2106,-0.2097,-0.2095,-0.2111,-0.2111,-0.2111,0,0,-0.2229,-0.2221,-0.2217,-0.2203,-0.2196,-0.2187,-0.2187,-0.2178,-0.2171,-0.2167,-0.2155,-0.2149,-0.2138,-0.2125,-0.2119,-0.212,-0.21,-0.2106,-0.2105,-0.2105,-0.2096,-0.2094,-0.2093,-0.2111,-0.2111,-0.2111,0,0,-0.2223,-0.2216,-0.2208,-0.22,-0.219,-0.2184,-0.2182,-0.2171,-0.2166,-0.2154,-0.215,-0.2141,-0.2125,-0.2117,-0.2111,-0.21,-0.2097,-0.2097,-0.2093,-0.2084,-0.2083,-0.2082,-0.2077,-0.2075,-0.2096,-0.2096,-0.2096,0,-0.2223,-0.221,-0.2204,-0.2194,-0.2187,-0.2183,-0.2174,-0.2167,-0.2154,-0.2149,-0.215,-0.2128,-0.2121,-0.2105,-0.2102,-0.2098,-0.2094,-0.2098,-0.2084,-0.2083,-0.2081,-0.2076,-0.2075,-0.2095,-0.2095,-0.2095,-0.2095,0,-0.221,-0.22,-0.2195,-0.2181,-0.2174,-0.2165,-0.2156,-0.215,-0.2146,-0.214,-0.2126,-0.2117,-0.2105,-0.2101,-0.2098,-0.2085,-0.2085,-0.2085,-0.2088,-0.208,-0.2075,-0.2073,-0.2095,-0.2095,-0.2095,-0.2095,0,0,-0.2207,-0.2189,-0.2187,-0.218,-0.2167,-0.2159,-0.2149,-0.2137,-0.2131,-0.2121,-0.2112,-0.2097,-0.2096,-0.2089,-0.2085,-0.2078,-0.2067,-0.2078,-0.2078,-0.2076,-0.2051,-0.2051,-0.2049,-0.2066,-0.2065,-0.2065,-0.2051,0,-0.2198,-0.218,-0.2173,-0.2158,-0.2148,-0.2143,-0.2134,-0.2124,-0.2118,-0.2108,-0.2101,-0.209,-0.209,-0.2086,-0.2078,-0.207,-0.2062,-0.2071,-0.2056,-0.2056,-0.2059,-0.2046,-0.2047,-0.2034,-0.205,-0.2049,-0.2049,0,-0.2186,-0.2176,-0.216,-0.2146,-0.2142,-0.2134,-0.2121,-0.2113,-0.2101,-0.2097,-0.2088,-0.2083,-0.2071,-0.2074,-0.2056,-0.2063,-0.2056,-0.2051,-0.205,-0.2048,-0.2052,-0.2044,-0.203,-0.2028,-0.2046,-0.2046,-0.2047,0,-0.2184,-0.2167,-0.2154,-0.2149,-0.2133,-0.2127,-0.212,-0.2109,-0.2102,-0.209,-0.2085,-0.2073,-0.2066,-0.2056,-0.2048,-0.2051,-0.203,-0.2033,-0.2026,-0.2026,-0.2022,-0.2022,-0.2006,-0.2018,-0.2018,-0.2018,-0.2018,0,-0.2176,-0.2166,-0.2153,-0.2145,-0.2133,-0.2125,-0.2113,-0.2106,-0.2096,-0.2086,-0.208,-0.2071,-0.2061,-0.205,-0.2043,-0.2029,-0.2026,-0.2021,-0.202,-0.2022,-0.2022,-0.2017,-0.2018,-0.2017,-0.2018,-0.2018,-0.2018,0,-0.2172,-0.2163,-0.2149,-0.2135,-0.2131,-0.2123,-0.211,-0.2102,-0.2095,-0.2082,-0.2078,-0.2067,-0.2053,-0.2044,-0.2027,-0.2022,-0.2006,-0.2005,-0.201,-0.201,-0.2002,-0.2003,-0.1983,-0.1979,-0.1994,-0.1993,-0.1993,0,-0.2167,-0.2159,-0.2144,-0.2137,-0.213,-0.2118,-0.2111,-0.2101,-0.2093,-0.2078,-0.2072,-0.2058,-0.2046,-0.2025,-0.2014,-0.2001,-0.1999,-0.1992,-0.1997,-0.1998,-0.1997,-0.1998,-0.1996,-0.1992,-0.1992,-0.1992,-0.1992,0,-0.2159,-0.2154,-0.2144,-0.213,-0.2121,-0.211,-0.2099,-0.2094,-0.2082,-0.2073,-0.2059,-0.205,-0.2032,-0.2018,-0.2003,-0.1995,-0.1991,-0.199,-0.1988,-0.199,-0.1993,-0.199,-0.2008,-0.1991,-0.1991,-0.1991,-0.1991,-0.1991,-0.2154,-0.2146,-0.2134,-0.2121,-0.2112,-0.2101,-0.2092,-0.2083,-0.2071,-0.2056,-0.2051,-0.2036,-0.2023,-0.2002,-0.1994,-0.1981,-0.1982,-0.1978,-0.1977,-0.1977,-0.1976,-0.1995,-0.1979,-0.1979,-0.1979,-0.1979,-0.1979,0,-0.2145,-0.2136,-0.2125,-0.2109,-0.2099,-0.2096,-0.2083,-0.2074,-0.2061,-0.2049,-0.2038,-0.2021,-0.2006,-0.1994,-0.1979,-0.1971,-0.1969,-0.1967,-0.1968,-0.1966,-0.1977,-0.1981,-0.1969,-0.1969,-0.1969,-0.1969,-0.1969,-0.1969,-0.2139,-0.2125,-0.2119,-0.21,-0.2091,-0.2076,-0.2069,-0.2059,-0.2049,-0.203,-0.2018,-0.201,-0.1997,-0.1981,-0.1967,-0.1964,-0.1958,-0.1957,-0.1953,-0.1964,-0.1965,-0.1966,-0.1969,-0.1956,-0.1956,-0.1943,-0.1943,-0.1942]},{"header":{"parameterUnit":"m.s-1","parameterCategory":1,"la1":30.2991,"la2":30.254,"lo1":-89.0895,"lo2":-89.0444,"dy":0.0017,"dx":0.0017,"nx":28,"ny":28,"refTime":"2024-08-22T09:00:00:Z","depth":0,"parameterNumber":3,"parameterNumberName":"V-component_of_WINDS"},"data":[0,0,0,0,0,0,0,0,0,0,0,0,0,0,0,0,0,0,0,0,0,0,0,0,0,0,0,0,0,0,0,0,0,0,0,0,0,0,0,0,0,0,0,0,0,0,0,0,0,0,0,0,0,0,0,0,0,0,-3.1605,-3.1606,0,-3.1654,-3.1655,-3.1656,-3.1647,-3.1646,-3.1645,-3.1644,-3.1692,-3.1694,-3.1696,0,0,0,0,0,0,0,0,0,0,0,0,0,-3.15,-3.1502,-3.1605,-3.1606,-3.1606,-3.1654,-3.1655,-3.1656,-3.1647,-3.1646,-3.1645,-3.1644,-3.1692,-3.1694,-3.1696,0,0,0,0,0,0,0,0,0,0,0,0,0,-3.1547,-3.1503,-3.1605,-3.1608,-3.1609,-3.1654,-3.1655,-3.1656,-3.1647,-3.1646,-3.1645,-3.1644,-3.1691,-3.1694,-3.1697,-3.1742,0,0,-3.1706,-3.1708,0,0,0,0,0,0,0,0,-3.1545,-3.1551,-3.1607,-3.1608,-3.1609,-3.1643,-3.1636,-3.1685,-3.1648,-3.1633,-3.1644,-3.1643,-3.1677,-3.1681,-3.1693,-3.1744,-3.1746,-3.1707,-3.1708,-3.171,-3.1711,0,0,0,0,0,0,0,-3.1541,-3.1549,-3.1624,-3.1608,-3.1609,-3.1606,-3.1611,-3.1645,-3.1661,-3.1634,-3.1633,-3.1639,-3.1677,-3.169,-3.1694,-3.1747,-3.1707,-3.1709,-3.1711,-3.1712,-3.1836,-3.1837,0,0,0,0,0,0,-3.1538,-3.1546,-3.1623,-3.1626,-3.1573,-3.1609,-3.1615,-3.1633,-3.1661,-3.1664,-3.164,-3.1639,-3.1685,-3.169,-3.1696,-3.1749,-3.171,-3.1713,-3.1714,-3.1834,-3.1836,-3.1837,0,0,0,0,0,0,-3.1535,-3.1545,-3.1621,-3.1586,-3.1596,-3.1612,-3.1633,-3.1635,-3.1648,-3.1666,-3.1668,-3.1651,-3.1685,-3.1691,-3.173,-3.175,-3.1714,-3.1717,-3.1833,-3.1835,-3.1837,-3.1856,0,0,0,0,0,0,-3.1532,-3.1544,-3.1562,-3.1587,-3.1597,-3.1656,-3.1634,-3.1637,-3.1654,-3.1652,-3.1676,-3.1679,-3.1684,-3.1726,-3.1733,-3.1754,-3.1719,-3.1831,-3.1834,-3.1836,-3.1854,-3.1859,-3.1863,0,0,0,0,0,-3.1529,-3.1565,-3.1563,-3.1572,-3.162,-3.1657,-3.1663,-3.1669,-3.1655,-3.1673,-3.1684,-3.1678,-3.1747,-3.173,-3.1738,-3.176,-3.183,-3.1833,-3.1836,-3.1852,-3.1858,-3.1863,0,0,0,0,0,0,-3.1541,-3.1568,-3.1566,-3.1611,-3.1632,-3.1655,-3.1677,-3.1675,-3.1699,-3.1696,-3.1702,-3.1707,-3.1746,-3.1757,-3.1737,-3.1804,-3.1786,-3.1791,-3.1795,-3.1801,-3.1806,-3.1801,-3.1722,0,0,0,0,0,-3.1549,-3.1578,-3.1599,-3.1637,-3.1648,-3.1661,-3.1677,-3.168,-3.1701,-3.1709,-3.1723,-3.1743,-3.1769,-3.1786,-3.1811,-3.1856,-3.186,-3.1875,-3.188,-3.1883,-3.1887,-3.191,-3.1916,-3.1848,-3.1848,-3.1848,0,0,-3.1566,-3.1584,-3.1602,-3.164,-3.1656,-3.1684,-3.1668,-3.1699,-3.1719,-3.1713,-3.1751,-3.1762,-3.1785,-3.1826,-3.1845,-3.1837,-3.1907,-3.1887,-3.189,-3.1892,-3.1914,-3.192,-3.1926,-3.185,-3.185,-3.1849,0,0,-3.161,-3.1628,-3.1661,-3.1678,-3.1703,-3.1711,-3.1719,-3.1743,-3.175,-3.1788,-3.1784,-3.1809,-3.1854,-3.1869,-3.1883,-3.1934,-3.1929,-3.1942,-3.1965,-3.1988,-3.1993,-3.1998,-3.2014,-3.202,-3.1946,-3.1946,-3.1946,0,-3.1627,-3.167,-3.1678,-3.1709,-3.1725,-3.1723,-3.1755,-3.1771,-3.1802,-3.1813,-3.1803,-3.186,-3.1875,-3.1919,-3.1932,-3.1944,-3.1952,-3.1938,-3.1992,-3.1997,-3.2001,-3.2017,-3.2023,-3.1948,-3.1947,-3.1947,-3.1947,0,-3.169,-3.1719,-3.1743,-3.1774,-3.1793,-3.1825,-3.1836,-3.1854,-3.1856,-3.1865,-3.1903,-3.1921,-3.1949,-3.196,-3.1962,-3.2005,-3.1999,-3.1991,-3.1972,-3.2009,-3.2023,-3.203,-3.1949,-3.1949,-3.1949,-3.1948,0,0,-3.1742,-3.1777,-3.1785,-3.1799,-3.1827,-3.1849,-3.188,-3.1909,-3.1924,-3.1946,-3.1971,-3.2009,-3.2002,-3.2018,-3.2021,-3.2041,-3.2078,-3.203,-3.203,-3.2037,-3.2125,-3.2129,-3.2136,-3.2075,-3.2077,-3.2078,-3.2122,0,-3.1787,-3.1843,-3.185,-3.1899,-3.1926,-3.1924,-3.1951,-3.197,-3.198,-3.2003,-3.2013,-3.204,-3.2029,-3.2038,-3.2058,-3.2069,-3.2095,-3.2066,-3.2097,-3.2098,-3.209,-3.2144,-3.2149,-3.2191,-3.2128,-3.2129,-3.213,0,-3.1848,-3.1872,-3.1923,-3.1947,-3.1958,-3.1982,-3.2008,-3.2031,-3.2053,-3.2058,-3.2076,-3.2077,-3.2108,-3.209,-3.2132,-3.2112,-3.2125,-3.2133,-3.2134,-3.2136,-3.2115,-3.2145,-3.2204,-3.2209,-3.2139,-3.2139,-3.2138,0,-3.1878,-3.1924,-3.196,-3.1972,-3.2001,-3.2018,-3.203,-3.2051,-3.2067,-3.209,-3.21,-3.2126,-3.214,-3.216,-3.2167,-3.2153,-3.2208,-3.2191,-3.2212,-3.2212,-3.2222,-3.2221,-3.2281,-3.2234,-3.2233,-3.2233,-3.2233,0,-3.1927,-3.1958,-3.1974,-3.1996,-3.2031,-3.2039,-3.2073,-3.2084,-3.2103,-3.2126,-3.2127,-3.2148,-3.2158,-3.2181,-3.2187,-3.222,-3.2226,-3.2231,-3.2231,-3.223,-3.2229,-3.2237,-3.2233,-3.2235,-3.2235,-3.2234,-3.2234,0,-3.1966,-3.1978,-3.2018,-3.2042,-3.2049,-3.2073,-3.2093,-3.2114,-3.2124,-3.2153,-3.2161,-3.2176,-3.2203,-3.2213,-3.2246,-3.225,-3.2288,-3.2287,-3.228,-3.228,-3.23,-3.2297,-3.2367,-3.2375,-3.2323,-3.2324,-3.2324,0,-3.1995,-3.2019,-3.2046,-3.2063,-3.2076,-3.2102,-3.2119,-3.2128,-3.2145,-3.2172,-3.2189,-3.2216,-3.2238,-3.2282,-3.2295,-3.232,-3.2319,-3.2342,-3.2323,-3.232,-3.2317,-3.2315,-3.2317,-3.2344,-3.2345,-3.2345,-3.2346,0,-3.2046,-3.2051,-3.2075,-3.2102,-3.2123,-3.2144,-3.2165,-3.2178,-3.219,-3.2209,-3.2237,-3.2255,-3.2289,-3.2315,-3.2341,-3.2353,-3.2351,-3.2352,-3.2358,-3.2355,-3.235,-3.2351,-3.2288,-3.235,-3.2349,-3.2349,-3.2349,-3.2349,-3.208,-3.21,-3.2122,-3.215,-3.2166,-3.2186,-3.2206,-3.2219,-3.2243,-3.2272,-3.2276,-3.2306,-3.2326,-3.2361,-3.2374,-3.2397,-3.239,-3.2399,-3.2401,-3.2403,-3.2403,-3.2348,-3.2401,-3.2401,-3.2401,-3.2401,-3.2401,0,-3.2128,-3.2143,-3.2168,-3.2197,-3.2218,-3.2216,-3.2239,-3.2256,-3.2283,-3.2303,-3.2325,-3.2357,-3.2382,-3.2398,-3.2424,-3.2439,-3.2439,-3.2445,-3.2443,-3.2446,-3.2408,-3.24,-3.2445,-3.2445,-3.2445,-3.2445,-3.2445,-3.2445,-3.2156,-3.219,-3.2198,-3.224,-3.2254,-3.2284,-3.2297,-3.2315,-3.233,-3.2366,-3.2388,-3.2398,-3.2416,-3.2443,-3.2467,-3.247,-3.2479,-3.2486,-3.2489,-3.2453,-3.2449,-3.2444,-3.2436,-3.2488,-3.2488,-3.2524,-3.2525,-3.2525]}]]